Location: Buisson
(44.2787°N, 4.9969°E)
Time: 02:02:23
(UTC+00:00)

Cosmos 1959 Rocket - Pass Details

Date: 18 April 2021
Orbit: 948 x 996 km, 83.0° (Epoch: 08 May)

Event Time Altitude Azimuth Distance (km) Brightness Sun altitude
Rises 01:32:42 0° 350° (N) 3,725 8.2 -29.2°
Reaches altitude 10° 01:35:15 10° 350° (N) 2,769 7.4 -28.9°
Maximum altitude 01:41:36 79° 265° (W) 1,010 4.4 -28.3°
Enters shadow 01:41:51 78° 235° (SW) 1,015 4.3 -28.3°
